Weather in Kobylka

Poland     52°20′22″N   21°11′24″E
temp.,
°C
wind,
m/s
gust,
m/s
humid.,
%
clouds,
%
prec.,
mm/h
press.,
hPa
HPBL,
m
24 june, thu
thu2423:00+20nnw36964 3.1 1018197
02:00+19n249717 3.1 1018106
05:00+19nne249939 0.0 1017112
08:00+21ene2390100 0.0 1017407
11:00+26e1272100 0.0 1017696
14:00+30se355656 0.1 10151660
17:00+31sse465012 1.5 10131876
20:00+27wnw2371100 2.1 101264
25 june, fri
fri2523:00+18nnw4693100 10.3 1013143
02:00+18ssw349018 10.3 101390
05:00+18ssw2494100 0.4 1012115
08:00+21wsw3487100 0.4 1013423
11:00+25wnw336446 0.0 10131125
14:00+24wsw6772100 0.3 1013727
17:00+20w687561 0.1 1015773
20:00+19w687394 0.1 1015978
26 june, sat
sat2623:00+16wnw5108482 0.0 1016629
02:00+14wnw389316 0.0 1018353
05:00+13wnw3894100 0.0 1017325
08:00+17nw356998 0.0 1018660
11:00+22wnw345447 0.0 10181416
14:00+24nw3444100 0.0 10171834
17:00+25nw344424 0.0 10161950
20:00+21nw36614 0.0 1017285
27 june, sun
sun2723:00+17wnw22710 0.0 101832
02:00+15nw22800 0.0 101834
05:00+15nw12881 0.0 101830
08:00+19nnw23704 0.0 1018528
11:00+24nnw23480 0.0 10181485
14:00+26nnw333917 0.0 10172065
17:00+25nne334670 0.0 1017908
20:00+22nnw126070 0.0 1017109
28 june, mon
mon2823:00+18e22710 0.0 101818
02:00+17se22705 0.0 101826
05:00+16sse117569 0.0 101820
08:00+22s235995 0.0 1019346
11:00+27s11415 0.0 10181789
14:00+28ese223714 0.0 10172286
17:00+28se434010 0.0 10161768
20:00+23se23575 0.0 1016122